[[{"header":{"parameterUnit":"m.s-1","parameterCategory":1,"la1":30.2991,"la2":30.254,"lo1":-89.0895,"lo2":-89.0444,"dy":0.0017,"dx":0.0017,"nx":28,"ny":28,"refTime":"2023-04-06T21:00:00:Z","depth":0,"parameterNumber":2,"parameterNumberName":"U-component_of_WINDS"},"data":[0,0,0,0,0,0,0,0,0,0,0,0,0,0,0,0,0,0,0,0,0,0,0,0,0,0,0,0,0,0,0,0,0,0,0,0,0,0,0,0,0,0,0,0,0,0,0,0,0,0,0,0,0,0,0,0,0,0,-3.3201,-3.3201,0,-3.318,-3.3179,-3.3179,-3.3135,-3.3134,-3.3133,-3.3132,-3.3109,-3.311,-3.311,0,0,0,0,0,0,0,0,0,0,0,0,0,-3.3205,-3.3205,-3.3201,-3.3201,-3.32,-3.318,-3.3179,-3.3179,-3.3135,-3.3134,-3.3133,-3.3132,-3.3109,-3.311,-3.311,0,0,0,0,0,0,0,0,0,0,0,0,0,-3.3195,-3.3205,-3.3201,-3.3176,-3.3173,-3.318,-3.3179,-3.3179,-3.3135,-3.3134,-3.3132,-3.3131,-3.3109,-3.311,-3.311,-3.3139,0,0,-3.3111,-3.3111,0,0,0,0,0,0,0,0,-3.3196,-3.3195,-3.318,-3.3178,-3.3175,-3.3158,-3.3172,-3.3165,-3.3135,-3.315,-3.3132,-3.313,-3.3127,-3.3126,-3.3124,-3.3138,-3.3137,-3.3111,-3.3111,-3.3111,-3.3111,0,0,0,0,0,0,0,-3.3197,-3.3196,-3.3192,-3.318,-3.3177,-3.3166,-3.3163,-3.3171,-3.3146,-3.3148,-3.3145,-3.3143,-3.3125,-3.3124,-3.3124,-3.3136,-3.3111,-3.3111,-3.3112,-3.3112,-3.3174,-3.3176,0,0,0,0,0,0,-3.3201,-3.3197,-3.3193,-3.3192,-3.3182,-3.3167,-3.3164,-3.3165,-3.3146,-3.3141,-3.3144,-3.3141,-3.3124,-3.3123,-3.3123,-3.3155,-3.3111,-3.3112,-3.3112,-3.3173,-3.3175,-3.3176,0,0,0,0,0,0,-3.3201,-3.3201,-3.3194,-3.3193,-3.3192,-3.3168,-3.317,-3.3165,-3.3164,-3.3143,-3.3138,-3.3148,-3.3123,-3.3122,-3.3136,-3.3154,-3.3112,-3.3112,-3.3171,-3.3173,-3.3175,-3.3221,0,0,0,0,0,0,-3.3201,-3.3201,-3.3211,-3.3194,-3.3192,-3.3207,-3.3171,-3.3166,-3.3165,-3.3161,-3.3145,-3.3141,-3.3122,-3.3135,-3.3136,-3.3154,-3.3112,-3.3169,-3.3172,-3.3175,-3.3218,-3.3225,-3.3231,0,0,0,0,0,-3.3202,-3.3225,-3.3212,-3.3212,-3.3204,-3.3208,-3.3207,-3.3185,-3.3167,-3.3177,-3.3164,-3.3141,-3.3153,-3.3137,-3.3137,-3.3156,-3.3168,-3.3171,-3.3174,-3.3215,-3.3223,-3.323,0,0,0,0,0,0,-3.3243,-3.3222,-3.3207,-3.3225,-3.3219,-3.32,-3.3212,-3.3194,-3.3192,-3.3188,-3.3161,-3.3158,-3.3175,-3.3167,-3.315,-3.3184,-3.3157,-3.316,-3.3188,-3.3195,-3.3202,-3.3202,-3.3113,0,0,0,0,0,-3.3255,-3.326,-3.3241,-3.3258,-3.3256,-3.3235,-3.3236,-3.322,-3.3212,-3.3209,-3.3196,-3.319,-3.3192,-3.3194,-3.3194,-3.3218,-3.3214,-3.3231,-3.3237,-3.3242,-3.3245,-3.3258,-3.3265,-3.3187,-3.3187,-3.3187,0,0,-3.3278,-3.3267,-3.3271,-3.3267,-3.326,-3.3266,-3.3233,-3.324,-3.3244,-3.321,-3.3221,-3.3213,-3.3204,-3.3223,-3.323,-3.3216,-3.3267,-3.3247,-3.3251,-3.3251,-3.3262,-3.327,-3.3276,-3.3189,-3.3189,-3.3188,0,0,-3.3323,-3.3316,-3.333,-3.3324,-3.3315,-3.3301,-3.3305,-3.329,-3.3283,-3.3295,-3.327,-3.3275,-3.3279,-3.3274,-3.3272,-3.332,-3.3299,-3.3321,-3.3353,-3.3366,-3.3372,-3.3378,-3.3394,-3.3401,-3.3324,-3.3325,-3.3325,0,-3.3353,-3.3361,-3.3339,-3.3349,-3.3348,-3.3319,-3.3334,-3.3329,-3.3321,-3.3321,-3.3306,-3.3312,-3.3304,-3.3322,-3.3334,-3.3333,-3.3337,-3.3321,-3.3373,-3.3378,-3.3383,-3.3399,-3.3405,-3.3327,-3.3327,-3.3327,-3.3326,0,-3.3398,-3.3404,-3.3417,-3.341,-3.3411,-3.3423,-3.3404,-3.3408,-3.3394,-3.3382,-3.3396,-3.3386,-3.3385,-3.3388,-3.3373,-3.3405,-3.3396,-3.3378,-3.335,-3.3393,-3.3408,-3.3414,-3.3331,-3.333,-3.3329,-3.3328,0,0,-3.3465,-3.3449,-3.3454,-3.3451,-3.3441,-3.3445,-3.3457,-3.3457,-3.3461,-3.3457,-3.3466,-3.3473,-3.3456,-3.3454,-3.3439,-3.3451,-3.349,-3.3431,-3.343,-3.3441,-3.3524,-3.3537,-3.3544,-3.3478,-3.3479,-3.348,-3.3525,0,-3.3507,-3.3525,-3.3508,-3.353,-3.3536,-3.3511,-3.3521,-3.3517,-3.3507,-3.3512,-3.3502,-3.3506,-3.3484,-3.3483,-3.3494,-3.3483,-3.3506,-3.348,-3.3486,-3.3486,-3.3487,-3.3552,-3.3565,-3.3607,-3.353,-3.3531,-3.3532,0,-3.3556,-3.3556,-3.3579,-3.3569,-3.3571,-3.3581,-3.358,-3.3585,-3.358,-3.3572,-3.3572,-3.3555,-3.3567,-3.3542,-3.3559,-3.3541,-3.3544,-3.3539,-3.354,-3.3538,-3.351,-3.355,-3.3621,-3.3627,-3.354,-3.354,-3.3539,0,-3.3602,-3.3608,-3.3623,-3.3621,-3.361,-3.3618,-3.3614,-3.3607,-3.3609,-3.3609,-3.361,-3.3612,-3.3612,-3.3615,-3.3599,-3.3582,-3.3618,-3.3591,-3.3612,-3.3612,-3.3618,-3.3618,-3.3689,-3.3623,-3.3623,-3.3623,-3.3622,0,-3.3649,-3.3664,-3.3643,-3.3652,-3.3669,-3.365,-3.3668,-3.3661,-3.3656,-3.3664,-3.3643,-3.3651,-3.363,-3.3637,-3.3625,-3.3641,-3.3641,-3.3636,-3.3632,-3.3637,-3.3637,-3.3636,-3.3632,-3.3624,-3.3624,-3.3623,-3.3623,0,-3.3702,-3.3689,-3.3703,-3.3692,-3.369,-3.3703,-3.3694,-3.3702,-3.3693,-3.3704,-3.3705,-3.3691,-3.3697,-3.3683,-3.3687,-3.3679,-3.3702,-3.3694,-3.3703,-3.37,-3.3721,-3.3719,-3.3793,-3.3801,-3.3731,-3.3732,-3.3733,0,-3.3732,-3.3743,-3.3734,-3.3738,-3.3735,-3.3742,-3.3744,-3.3728,-3.3731,-3.3728,-3.3737,-3.3742,-3.3745,-3.3757,-3.3747,-3.3751,-3.3742,-3.3768,-3.3742,-3.3747,-3.3742,-3.3741,-3.3742,-3.3772,-3.3773,-3.3774,-3.3774,0,-3.3786,-3.378,-3.3784,-3.3786,-3.379,-3.3791,-3.379,-3.3795,-3.3778,-3.3783,-3.379,-3.3792,-3.3798,-3.3803,-3.3805,-3.3802,-3.3785,-3.3783,-3.3788,-3.3791,-3.3796,-3.3793,-3.3716,-3.3781,-3.378,-3.3779,-3.3779,-3.3779,-3.3828,-3.3837,-3.3833,-3.3838,-3.3837,-3.3838,-3.3846,-3.3839,-3.3844,-3.3847,-3.3838,-3.3847,-3.3844,-3.3846,-3.3844,-3.3852,-3.384,-3.3847,-3.3849,-3.3851,-3.3854,-3.3797,-3.3853,-3.3852,-3.3852,-3.3852,-3.3852,0,-3.388,-3.3877,-3.3883,-3.3884,-3.3889,-3.3875,-3.3875,-3.388,-3.3888,-3.3887,-3.3891,-3.39,-3.3907,-3.3899,-3.3904,-3.3912,-3.3904,-3.3913,-3.3912,-3.3911,-3.3864,-3.3859,-3.3919,-3.3919,-3.3919,-3.3919,-3.3919,-3.3919,-3.3908,-3.3923,-3.3917,-3.3932,-3.3929,-3.3938,-3.3939,-3.3941,-3.394,-3.3951,-3.3956,-3.3952,-3.3948,-3.3954,-3.3959,-3.3957,-3.3959,-3.3971,-3.3966,-3.3921,-3.3914,-3.3908,-3.3903,-3.3972,-3.3972,-3.4012,-3.4013,-3.4013]},{"header":{"parameterUnit":"m.s-1","parameterCategory":1,"la1":30.2991,"la2":30.254,"lo1":-89.0895,"lo2":-89.0444,"dy":0.0017,"dx":0.0017,"nx":28,"ny":28,"refTime":"2023-04-06T21:00:00:Z","depth":0,"parameterNumber":3,"parameterNumberName":"V-component_of_WINDS"},"data":[0,0,0,0,0,0,0,0,0,0,0,0,0,0,0,0,0,0,0,0,0,0,0,0,0,0,0,0,0,0,0,0,0,0,0,0,0,0,0,0,0,0,0,0,0,0,0,0,0,0,0,0,0,0,0,0,0,0,2.9679,2.9679,0,2.9666,2.9666,2.9666,2.9736,2.9738,2.974,2.9742,2.9723,2.9721,2.9718,0,0,0,0,0,0,0,0,0,0,0,0,0,2.9762,2.976,2.9679,2.9679,2.9679,2.9666,2.9666,2.9666,2.9735,2.9738,2.974,2.9743,2.9724,2.9721,2.9718,0,0,0,0,0,0,0,0,0,0,0,0,0,2.9735,2.9759,2.9679,2.9712,2.9715,2.9666,2.9666,2.9666,2.9735,2.9738,2.9741,2.9744,2.9725,2.9721,2.9718,2.9635,0,0,2.9707,2.9705,0,0,0,0,0,0,0,0,2.9736,2.9731,2.9708,2.971,2.9713,2.9706,2.9688,2.9655,2.9734,2.9727,2.9742,2.9745,2.9714,2.9712,2.9703,2.9634,2.9633,2.9706,2.9704,2.9703,2.9702,0,0,0,0,0,0,0,2.9738,2.9732,2.9674,2.9707,2.971,2.9727,2.9726,2.9682,2.9704,2.9728,2.9733,2.9731,2.9716,2.9706,2.9703,2.9633,2.9706,2.9703,2.9701,2.97,2.9498,2.9495,0,0,0,0,0,0,2.9736,2.9734,2.9674,2.9674,2.9732,2.9723,2.9722,2.9705,2.9704,2.9707,2.9728,2.9734,2.971,2.9707,2.9702,2.9607,2.9703,2.9699,2.9697,2.9501,2.9497,2.9494,0,0,0,0,0,0,2.9737,2.973,2.9675,2.9705,2.9699,2.9718,2.9698,2.9703,2.9693,2.9705,2.9708,2.9714,2.9713,2.9707,2.9652,2.9607,2.9698,2.9694,2.9505,2.95,2.9496,2.9415,0,0,0,0,0,0,2.9739,2.973,2.9699,2.9704,2.9697,2.9625,2.9695,2.9701,2.9687,2.9694,2.9692,2.9694,2.9715,2.9657,2.9648,2.9604,2.9692,2.9509,2.9503,2.9497,2.9421,2.9408,2.9396,0,0,0,0,0,2.9742,2.9675,2.9697,2.969,2.966,2.9623,2.9619,2.9645,2.9683,2.9652,2.966,2.9695,2.9614,2.9651,2.9642,2.9595,2.9512,2.9505,2.9498,2.9427,2.941,2.9396,0,0,0,0,0,0,2.9662,2.9676,2.9701,2.9634,2.9627,2.9635,2.9596,2.9626,2.9607,2.9614,2.9646,2.9645,2.9584,2.9584,2.9625,2.9517,2.9569,2.956,2.9519,2.9503,2.949,2.9492,2.9689,0,0,0,0,0,2.9637,2.9608,2.9621,2.956,2.9556,2.9577,2.9561,2.9583,2.9576,2.9573,2.9577,2.9567,2.9541,2.9522,2.9497,2.9422,2.9423,2.9386,2.9373,2.9363,2.9354,2.9316,2.93,2.947,2.947,2.947,0,0,2.9584,2.9589,2.9567,2.9545,2.9542,2.951,2.9573,2.9536,2.9513,2.9566,2.9516,2.9518,2.951,2.9445,2.9417,2.9443,2.9308,2.9353,2.9345,2.9342,2.9307,2.9291,2.9277,2.9465,2.9466,2.9467,0,0,2.9472,2.9472,2.9423,2.942,2.9416,2.943,2.9418,2.9422,2.9427,2.9377,2.9417,2.9389,2.9341,2.9334,2.9325,2.9213,2.9244,2.9204,2.9137,2.91,2.9087,2.9075,2.9036,2.9022,2.9195,2.9195,2.9195,0,2.9407,2.9362,2.9393,2.9354,2.9344,2.9394,2.9344,2.9338,2.9325,2.9316,2.9347,2.929,2.9288,2.9223,2.9196,2.9186,2.9174,2.9204,2.9086,2.9075,2.9064,2.9028,2.9013,2.919,2.9191,2.9191,2.9192,0,2.9282,2.925,2.921,2.92,2.9185,2.914,2.9165,2.9145,2.9168,2.9179,2.9128,2.9128,2.9105,2.9091,2.9112,2.903,2.9047,2.9081,2.9135,2.9043,2.9009,2.8995,2.9183,2.9185,2.9187,2.9188,0,0,2.9118,2.9128,2.9113,2.911,2.911,2.9085,2.9043,2.9024,2.9007,2.8996,2.8962,2.8922,2.8955,2.8944,2.8964,2.8931,2.8845,2.897,2.8971,2.8948,2.8756,2.8731,2.8714,2.8866,2.8864,2.8861,2.8757,0,2.9009,2.8941,2.8969,2.8897,2.8869,2.8917,2.8881,2.8876,2.8886,2.8863,2.8873,2.8845,2.8889,2.8883,2.8853,2.8862,2.8807,2.887,2.8834,2.8833,2.8836,2.8696,2.8669,2.8571,2.8744,2.8742,2.874,0,2.8873,2.8861,2.8787,2.8795,2.8784,2.8751,2.8736,2.8713,2.871,2.8719,2.8709,2.8737,2.8696,2.875,2.8695,2.8737,2.8724,2.8727,2.8724,2.8721,2.8781,2.8691,2.854,2.8525,2.872,2.8721,2.8723,0,2.8763,2.8727,2.8679,2.8674,2.8682,2.8658,2.866,2.866,2.8647,2.8633,2.8625,2.8606,2.8596,2.858,2.8603,2.864,2.8545,2.86,2.8552,2.8551,2.8529,2.853,2.8374,2.852,2.852,2.852,2.8521,0,2.8639,2.8592,2.863,2.86,2.8549,2.8582,2.8531,2.8538,2.8537,2.851,2.8549,2.8522,2.8553,2.8529,2.8546,2.8499,2.8493,2.85,2.8505,2.8496,2.8496,2.8489,2.8496,2.8516,2.8517,2.8518,2.8519,0,2.8507,2.853,2.8481,2.8493,2.8495,2.8458,2.8468,2.844,2.8454,2.8418,2.8412,2.8432,2.8406,2.8428,2.8401,2.8413,2.835,2.8364,2.8352,2.8356,2.8307,2.8312,2.8141,2.8121,2.8278,2.8277,2.8276,0,2.8427,2.8392,2.8402,2.8388,2.8388,2.8363,2.8351,2.8382,2.8368,2.8363,2.8336,2.8314,2.8298,2.8253,2.8265,2.8245,2.826,2.8202,2.8257,2.8251,2.8261,2.8263,2.826,2.8191,2.8189,2.8187,2.8186,0,2.8282,2.8297,2.8279,2.8265,2.8251,2.8241,2.8234,2.822,2.8252,2.8234,2.8209,2.8196,2.8171,2.8148,2.8133,2.8134,2.8165,2.8169,2.8157,2.8148,2.8143,2.8146,2.8322,2.8172,2.8174,2.8175,2.8176,2.8176,2.8175,2.8148,2.8151,2.813,2.8129,2.8123,2.8099,2.8111,2.8091,2.8074,2.8094,2.8063,2.8062,2.8046,2.8043,2.8019,2.8043,2.8025,2.8021,2.8016,2.801,2.8146,2.8016,2.8017,2.8017,2.8017,2.8018,0,2.8034,2.8039,2.802,2.8011,2.7995,2.8028,2.8023,2.8007,2.7981,2.7978,2.7963,2.7934,2.7913,2.7924,2.7906,2.7885,2.7899,2.7879,2.7881,2.7881,2.7989,2.8002,2.7868,2.7869,2.7869,2.7869,2.7869,2.7869,2.7959,2.7915,2.793,2.7886,2.7892,2.7864,2.7859,2.7853,2.7851,2.7819,2.7803,2.7811,2.7814,2.7797,2.7779,2.7783,2.7775,2.775,2.7759,2.7859,2.7873,2.7887,2.79,2.7747,2.7747,2.7653,2.7653,2.7652]}]]